Weather History for Biloxi, MS

Change the Weather History Date:

Tuesday, June 25, 2013

  Actual Average Record
Temperature  
Mean Temperature 84 °F -  
Max Temperature 89 °F 88 °F 96 °F (1950)
Min Temperature 80 °F 73 °F 60 °F (1974)
Cooling Degree Days 19    
Growing Degree Days 34 (Base 50)    
Moisture  
Dew Point 74 °F    
Average Humidity 71    
Maximum Humidity 84    
Minimum Humidity 61    
Precipitation  
Precipitation 0.00 in - - ()
Sea Level Pressure  
Sea Level Pressure 30.09 in    
Wind  
Wind Speed 6 mph (South)    
Max Wind Speed 10 mph    
Max Gust Speed 17 mph    
Visibility 10 miles    
Events      
Averages and records for this station are not official NWS values.
T = Trace of Precipitation, MM = Missing Value Source: NWS Daily Summary

Daily Weather History Graph

Daily Weather History Graph

Search for Another Location

Airport:

Trip Planner

Search our weather history database for the weather conditions in past years. The results will help you decide how hot, cold, wet, or windy it might be!

Date:

Astronomy

Jun. 25, 2013 Rise Set
Actual Time 5:55 AM CDT 8:01 PM CDT
Civil Twilight 5:27 AM CDT 8:29 PM CDT
Nautical Twilight 4:54 AM CDT 9:02 PM CDT
Astronomical Twilight 4:17 AM CDT 9:38 PM CDT
Moon 10:00 PM CDT (6/25) 8:24 AM CDT (6/25)
Length of Visible Light 15h 01m
Length of Day
14h 06m
Waning Gibbous, 92% of the Moon is Illuminated
Jun 25
Waning Gibbous
Jun 29
Last Quarter
Jul 8
New
Jul 15
First Quarter
Jul 22
Full

Hourly Weather History & Observations

Time (CDT) Temp. Heat Index Dew Point Humidity Pressure Visibility Wind Dir Wind Speed Gust Speed Precip Events Conditions
12:58 AM 80.8 °F 85.6 °F 73.4 °F 78% 30.11 in 10.0 mi SSE 4.6 mph - N/A   Partly Cloudy
1:58 AM 82.0 °F 87.9 °F 73.9 °F 76% 30.10 in 10.0 mi South 5.8 mph - N/A   Partly Cloudy
2:58 AM 82.2 °F 87.6 °F 72.7 °F 73% 30.09 in 10.0 mi South 5.8 mph - N/A   Clear
3:58 AM 82.0 °F 87.4 °F 73.0 °F 74% 30.09 in 10.0 mi South 6.9 mph - N/A   Clear
4:58 AM 81.3 °F 86.1 °F 72.9 °F 75% 30.09 in 10.0 mi South 5.8 mph - N/A   Clear
5:58 AM 81.1 °F 85.6 °F 72.1 °F 74% 30.10 in 10.0 mi South 3.5 mph - N/A   Clear
6:58 AM 82.2 °F 87.6 °F 72.9 °F 73% 30.11 in 10.0 mi South 3.5 mph - N/A   Partly Cloudy
7:28 AM 80.6 °F 86.2 °F 75.2 °F 84% 30.11 in 10.0 mi NNE 3.5 mph - N/A   Mostly Cloudy
7:58 AM 81.7 °F 88.0 °F 75.0 °F 80% 30.13 in 10.0 mi NNE 4.6 mph - N/A   Mostly Cloudy
8:03 AM 80.6 °F 86.2 °F 75.2 °F 84% 30.12 in 10.0 mi NNE 3.5 mph - N/A   Mostly Cloudy
8:23 AM 84.2 °F 92.3 °F 75.2 °F 74% 30.12 in 10.0 mi North 4.6 mph - N/A   Mostly Cloudy
8:58 AM 84.9 °F 92.5 °F 74.3 °F 70% 30.13 in 10.0 mi Calm Calm - N/A   Mostly Cloudy
9:03 AM 86.0 °F 95.1 °F 75.2 °F 70% 30.12 in 10.0 mi SSW 2.3 mph - N/A   Scattered Clouds
9:58 AM 86.2 °F 94.2 °F 74.1 °F 67% 30.13 in 10.0 mi Variable 4.6 mph - N/A   Clear
10:43 AM 87.8 °F 97.6 °F 75.2 °F 66% 30.12 in 10.0 mi South 8.1 mph - N/A   Mostly Cloudy
10:48 AM 87.8 °F 97.6 °F 75.2 °F 66% 30.12 in 10.0 mi SSE 6.9 mph - N/A   Scattered Clouds
10:58 AM 87.1 °F 95.9 °F 74.5 °F 66% 30.12 in 10.0 mi SSW 8.1 mph - N/A   Partly Cloudy
11:58 AM 87.1 °F 96.8 °F 75.6 °F 68% 30.13 in 10.0 mi South 8.1 mph - N/A   Clear
12:58 PM 87.4 °F 97.2 °F 75.4 °F 67% 30.11 in 10.0 mi SSE 9.2 mph 17.3 mph N/A   Partly Cloudy
1:58 PM 87.8 °F 95.2 °F 72.9 °F 61% 30.10 in 10.0 mi South 8.1 mph - N/A   Partly Cloudy
2:58 PM 88.7 °F 97.2 °F 73.6 °F 61% 30.09 in 10.0 mi SSW 9.2 mph - N/A   Clear
3:58 PM 88.0 °F 97.0 °F 74.3 °F 64% 30.07 in 10.0 mi South 8.1 mph - N/A   Clear
4:58 PM 87.6 °F 96.2 °F 73.9 °F 64% 30.05 in 10.0 mi SSW 8.1 mph - N/A   Clear
5:58 PM 86.5 °F 95.0 °F 74.5 °F 67% 30.04 in 10.0 mi SSW 10.4 mph - N/A   Clear
6:58 PM 85.1 °F 92.6 °F 73.8 °F 69% 30.04 in 10.0 mi SSW 8.1 mph - N/A   Partly Cloudy
7:58 PM 84.2 °F 90.3 °F 72.5 °F 68% 30.04 in 10.0 mi South 8.1 mph - N/A   Clear
8:58 PM 83.7 °F 89.4 °F 72.3 °F 69% 30.04 in 10.0 mi South 9.2 mph - N/A   Clear
9:58 PM 83.8 °F 89.8 °F 72.7 °F 69% 30.07 in 10.0 mi South 6.9 mph - N/A   Clear
10:58 PM 83.7 °F 89.4 °F 72.7 °F 69% 30.06 in 10.0 mi South 5.8 mph - N/A   Scattered Clouds
11:58 PM 83.3 °F 89.0 °F 72.7 °F 70% 30.04 in 10.0 mi South 8.1 mph - N/A   Clear